Domov               UVHVVR             MKGP            O straneh              
ZDRAVSTVENO VARSTVO RASTLIN
  MREŽA AGROMET. POSTAJ
 ► PROGNOSTIČNA OBVESTILA
AGROMETEOROLOŠKI PODATKI -
ARSO
OBVLADOVANJE TVEGANJ ZARADI
NEUGODNIH VREMENSKIH RAZMER
  ► NARAVNE NESREČE
  ► SUŠA/MOČA
  ► NAMAKANJE
  ► ŽLED (gozdarstvo)
KARTOGRAFSKI PRIKAZI
SPLETNE POVEZAVE
PROJEKTI IN PUBLIKACIJE

AGROMETEOROLOŠKA MREŽA: VREMENSKE POSTAJE IN FENOLOŠKA OPAZOVANJA

Pregled podatkov za lokacijo Bizeljsko, meteorološka postaja 38541

Pregled senzorjev na lokaciji

ID Ime Zadnja
vrednost
Datum
zadnje
spremembe
Tip
senzorja
2029 Omočenost lista (U) 0 U 23.3.2019 12:00 A730WET
2030 Padavine (mm) 0 mm 23.3.2019 12:00 Rain-O-Matic
2028 Relativna vlaga 2 m (% RH) 40,44 % RH 23.3.2019 12:00 50YA
2027 Temperatura 2 m (°C) 14,85 °C 23.3.2019 11:59 50YA

Pregled podatkov zadnjih 24 ur

Zap.
št.
Datum in čas Bizeljsko
Omočenost
lista
Padavine Relativna
vlaga
2
m
Temperatura
2
m
1 23.3.2019 12:00
2 23.3.2019 11:30
3 23.3.2019 11:00
4 23.3.2019 10:30
5 23.3.2019 10:00 0 0 47,5 13,4
6 23.3.2019 09:30 0 0 48,6 12,5
7 23.3.2019 09:00 0 0 46,7 11,4
8 23.3.2019 08:30 0 0 49,8 10,2
9 23.3.2019 08:00 0 0 49,6 9,9
10 23.3.2019 07:30 0 0 47 8,6
11 23.3.2019 07:00 0 0 44,2 9,2
12 23.3.2019 06:30 0 0 44,3 7,9
13 23.3.2019 06:00 0 0 45 7,4
14 23.3.2019 05:30 0 0 45,6 7,2
15 23.3.2019 05:00 0 0 48,4 6,6
16 23.3.2019 04:30 0 0 47,9 6,7
17 23.3.2019 04:00 0 0 48,1 6,6
18 23.3.2019 03:30 0 0 44,9 7,6
19 23.3.2019 03:00 0 0 36,6 9,8
20 23.3.2019 02:30 0 0 35,4 10,1
21 23.3.2019 02:00 0 0 35,3 10,3
22 23.3.2019 01:30 0 0 38,1 9,5
23 23.3.2019 01:00 0 0 38,2 9,4
24 23.3.2019 00:30 0 0 37,2 9,7
25 23.3.2019 00:00 0 0 34 10,2
26 22.3.2019 23:30 0 0 32,9 10,5
27 22.3.2019 23:00 0 0 36,1 9,9
28 22.3.2019 22:30 0 0 33,3 10,7
29 22.3.2019 22:00 0 0 30,9 11,1
30 22.3.2019 21:30 0 0 30,3 11,1
31 22.3.2019 21:00 0 0 31 11,2
32 22.3.2019 20:30 0 0 31,6 11,3
33 22.3.2019 20:00 0 0 34,6 10,8
34 22.3.2019 19:30 0 0 33,6 11,3
35 22.3.2019 19:00 0 0 30,5 12,1
36 22.3.2019 18:30 0 0 29,6 12,5
37 22.3.2019 18:00 0 0 28,9 13,3
38 22.3.2019 17:30 0 0 26,6 14,6
39 22.3.2019 17:00 0 0 26,1 15,4
40 22.3.2019 16:30 0 0 26,1 15,8
41 22.3.2019 16:00 0 0 25,7 15,6
42 22.3.2019 15:30 0 0 27 15,4
43 22.3.2019 15:00 0 0 25,9 15,5
44 22.3.2019 14:30 0 0 27,1 15,3
45 22.3.2019 14:00 0 0 28,2 15,1
46 22.3.2019 13:30 0 0 30 14,6
47 22.3.2019 13:00 0 0 31,5 14,2
48 22.3.2019 12:30 0 0 32,9 13,6
© 2011 Ministrstvo za kmetijstvo, gozdarstvo in prehrano. Vse pravice pridržane.